Back to catalog

COSMOS 1388

AliveNavigationLEO
NORAD 13375·PAYLOAD·🇷🇺 Russia

Launched Jul 21, 1982 from Plesetsk Cosmodrome

Loading…

Next Passes (next 24 hours)

TLE

FreshSource: Space-Track

Epoch: Sep 14, 2026, 11:44 UTC

1 13375U 82073A   26257.48932597 -.00000019  00000-0 -15465-4 0  9995
2 13375  74.0113 257.9289 0051859  23.8495 132.8571 12.57510269 26786

Track COSMOS 1388 in real time with AllMySat

Download on the App Store